SCP
0 0 0 0 0 0 0 0 0 0 0 0 0 0 0 0 0 0 0 0 0 0 0 0 0 0 0 0 0 0 0 0 0 0 0 0 0 0 -0 -0 -0 -0 0
0 0 0 0 0 0 0 0 0 0 0 0 0 0 0 0 0 0 0 0 0 0 0 0 0 0 0 0 0 0 0 0 0 0 0 0 0 0 0 -0 0 0 0
0 0 0 0 0 0 0 0 0 0 0 0 0 0 0 0 0 0 0 0 0 0 0 0 0 0 0 0 0 0 0 0 0 0 0 0 0 0 0 0 0 0 0
0 0 0 0 0 0 0 0 0 0 0 0 0 0 0 0 0 0 0 0 0 0 0 0 0 0 0 0 0 0 0 0 0 0 0 0 0 0 0 0 0 0 0
0 0 0 0 0 0 0 0 0 0 0 0 0 0 0 0 0 0 0 0 0 0 0 0 0 0 0 0 0 0 0 0 0 0 0 0 0 0 0 0 0 0 0
0 0 0 0 0 0 0 0 0 0 0 0 0 0 0 0 0 0 0 0 0 0 0 0 0 0 0 0 0 0 0 0 0 0 0 0 0 0 0 0 0 0 0
0 0 0 0 0 0 0 0 0 0 0 0 0 0 0 0 0 0 0 0 0 0 0 0 0 0 0 0 0 0 0 0 0 0 0 0 0 0 0 0 0 0 0
0 0 0 0 0 0 0 0 0 0 0 0 0 0 0 0 0 0 0 0 0 0 0 0 0 0 0 0 0 0 0 0 0 0 0 0 0 0 0 0 0 0 0
0 0 0 0 0 0 0 0 0 0 0 0 0 0 0 0 0 0 0 0 0 0 0 0 0 0 0 0 0 0 0 0 0 0 0 0 0 0 0 0 0 0 0
0 0 0 0 0 0 0 0 0 0 0 0 0 0 0 0 0 0 0 0 0 0 0 0 0 0 0 0 0 0 0 0 0 0 0 0 0 0 0 0 0 0 0
0 0 0 0 0 0 0 0 0 0 0 0 0 0 0 0 0 0 0 0 0 0 0 0 0 0 0 0 0 0 0 0 0 0 0 0 0 0 0 0 0 0 0
0 0 0 0 0 0 0 0 0 0 0 0 0 0 0 0 0 0 0 0 0 0 0 0 0 0 0 0 0 0 0 0 0 0 0 0 0 0 0 0 0 0 0
0 0 0 0 0 0 0 0 0 0 0 0 0 0 0 0 0 0 0 0 0 0 0 0 0 0 0 0 0 0 0 0 0 0 0 0 0 0 0 0 0 0 0
0 0 0 0 0 0 0 0 0 0 0 0 0 0 0 0 0 0 0 0 0 0 0 0 0 0 0 0 0 0 0 0 0 0 0 0 0 0 0 0 0 0 0
0 0 0 0 0 0 0 0 0 0 0 0 0 0 0 0 0 0 0 0 0 0 0 0 0 0 0 0 0 0 0 0 0 0 0 0 0 0 0 0 0 0 0
0 0 0 0 0 0 0 0 0 0 0 0 0 0 0 0 0 0 0 0 0 0 0 0 0 0 0 0 0 0 0 0 0 0 0 0 0 0 0 0 0 0 0
0 0 0 0 0 0 0 0 0 0 0 0 0 0 0 0 0 0 0 0 0 0 0 0 0 0 0 0 0 0 0 0 0 0 0 0 0 0 0 0 0 0 0
0 0 0 0 0 0 0 0 0 0 0 0 0 0 0 0 0 0 0 0 0 0 0 0 0 0 0 0 0 0 0 0 0 0 0 0 0 0 0 0 0 0 0
0 0 0 0 0 0 0 0 0 0 0 0 0 0 0 0 0 0 0 0 0 0 0 0 0 0 0 0 0 0 0 0 0 0 0 0 0 0 0 0 0 0 0
0 0 0 0 0 0 0 0 0 0 0 0 0 0 0 0 0 0 0 0 0 0 0 0 0 0 0 0 0 0 0 0 0 0 0 0 0 0 0 0 0 0 0
0 0 0 0 0 0 0 0 0 0 0 0 0 0 0 0 0 0 0 0 0 0 0 0 0 0 0 0 0 0 0 0 0 0 0 0 0 0 0 0 0 0 0
0 0 0 0 0 0 0 0 0 0 0 0 0 0 0 0 0 0 0 0 0 0 0 0 0 0 0 0 0 0 0 0 0 0 0 0 0 0 0 0 0 0 -0
0 0 0 0 0 0 0 0 0 0 0 0 0 0 0 0 0 0 0 0 0 0 0 0 0 0 0 0 0 0 0 0 0 0 0 0 0 0 -0 -0 -0 -0 -0
0 0 0 0 0 0 0 0 0 0 0 0 0 0 0 0 0 0 0 0 0 0 0 0 0 0 0 0 0 0 0 0 0 0 0 0 0 0 -0 -0 -0 -0 -0
0 0 0 0 0 0 0 0 0 0 0 0 0 0 0 0 0 0 0 0 0 0 0 0 0 0 0 0 0 0 0 0 0 0 0 0 0 0 -0 -0 -0 -0 -0
0 0 0 0 0 0 0 0 0 0 0 0 0 0 0 0 0 0 0 0 0 0 0 0 0 0 0 0 0 0 0 0 0 0 0 0 0 -0 -0 -0 -0 -0 -0
Wind_Speed_500mb
95 94 102 106 105 107 102 96 91 90 89 85 83 84 81 76 70 64 58 53 53 51 47 48 44 41 41 41 45 49 54 59 84 112 106 110 111 111 112 112 113 115 111
89 95 99 104 108 113 112 106 98 96 89 86 86 85 83 80 74 69 64 58 55 52 49 47 43 40 40 43 47 54 58 62 74 105 114 114 113 111 111 114 115 114 114
92 97 104 107 107 112 114 111 106 102 93 91 91 91 89 84 78 73 67 61 57 52 49 46 42 39 41 44 49 56 61 67 72 87 114 114 113 110 113 116 119 118 112
95 101 107 108 107 107 109 111 109 106 98 95 95 92 90 85 80 77 71 63 58 53 49 46 42 38 39 45 51 59 61 66 72 81 98 111 110 105 99 107 116 100 104
100 106 109 106 108 108 109 107 106 104 99 94 93 92 93 89 87 81 72 63 58 55 50 45 42 37 44 47 53 58 59 63 67 76 92 101 108 97 86 100 109 117 111
104 109 109 112 111 112 105 105 104 98 95 94 95 97 97 94 87 80 73 65 59 55 51 46 37 42 42 46 52 48 46 51 62 74 83 90 112 94 98 99 107 111 129
98 101 111 111 111 110 101 102 101 97 94 95 99 98 98 92 85 82 75 65 60 54 50 42 42 40 44 47 47 48 46 48 55 62 82 90 108 102 104 110 108 109 127
83 88 97 105 107 102 99 100 98 96 94 96 102 100 98 95 91 85 77 67 59 55 47 46 41 42 44 43 46 52 55 57 62 65 76 86 93 98 97 105 111 107 120
69 79 86 93 97 97 95 98 96 97 96 100 101 99 99 94 91 83 74 65 56 48 49 43 41 45 37 41 45 49 57 67 70 67 73 77 75 83 92 96 105 101 114
55 68 75 82 86 88 88 93 93 93 96 98 97 97 95 91 86 79 74 63 49 54 51 44 44 33 37 39 37 46 66 68 70 71 77 84 84 82 76 65 73 87 95
50 54 60 64 71 76 79 83 85 90 93 95 94 94 96 90 83 76 71 57 55 57 49 44 30 29 33 35 38 47 54 55 62 70 75 80 80 76 75 68 66 77 93
56 48 47 52 59 66 73 79 82 84 89 90 90 93 93 88 80 73 67 51 60 50 48 34 25 29 28 28 36 44 46 47 55 64 71 77 81 81 80 75 76 83 89
58 52 41 43 52 56 63 72 77 81 88 92 92 96 97 92 82 76 61 59 59 55 47 30 30 24 21 25 32 39 41 43 52 61 70 77 80 82 88 86 81 90 95
66 60 56 57 55 51 57 66 73 83 88 96 97 104 103 94 87 76 64 60 58 55 38 29 25 18 15 23 30 33 36 44 53 61 71 78 83 85 92 84 92 100 101
74 70 70 71 68 69 71 71 75 84 93 102 98 106 112 102 90 67 65 65 56 40 32 29 23 17 20 22 30 33 39 45 53 60 69 78 83 85 96 88 86 100 100
80 79 79 79 76 76 79 83 84 88 91 92 89 102 102 87 75 73 64 57 48 43 35 26 18 20 23 25 29 33 38 45 51 60 67 76 82 85 94 91 87 96 99
88 81 81 80 83 80 81 83 86 62 78 74 62 88 95 81 74 63 52 48 41 40 33 23 21 21 21 27 30 34 41 44 51 61 68 78 82 88 90 85 98 96 99
89 89 88 80 77 79 82 82 80 82 70 69 62 66 78 68 65 60 57 48 50 42 32 22 23 20 21 28 30 36 41 47 55 64 70 78 86 87 85 92 97 98 100
71 78 85 89 85 81 77 73 73 72 76 82 78 69 71 68 64 58 62 52 45 37 27 21 22 18 23 28 32 35 42 48 56 66 71 81 88 90 86 98 102 100 100
66 74 82 85 82 75 71 66 70 80 84 86 85 84 83 76 76 74 56 52 43 33 24 22 18 19 25 30 33 36 43 50 57 66 73 83 91 89 95 101 103 105 102
73 72 73 72 72 70 68 73 83 92 91 88 92 90 96 95 80 63 58 48 39 31 27 21 16 21 24 27 32 38 43 49 54 65 75 83 90 92 102 102 106 103 102
64 63 61 62 62 60 64 75 89 95 100 101 97 86 86 75 68 58 53 44 34 29 23 16 18 24 25 27 33 40 44 50 53 64 74 84 89 102 102 105 106 103 101
44 47 48 50 50 56 68 82 90 96 100 95 86 83 79 76 65 56 46 38 32 25 19 17 21 24 26 27 31 38 43 49 51 59 73 86 92 102 103 105 105 104 104
30 37 44 49 54 62 70 74 81 88 83 84 85 78 71 70 60 50 42 35 27 20 18 20 24 26 26 26 29 33 37 42 45 54 69 86 90 100 104 106 105 104 106
24 32 38 45 53 59 63 67 71 76 81 82 76 67 66 59 51 44 36 29 22 20 19 22 25 28 29 29 30 33 33 35 38 48 70 83 82 97 101 104 103 108 104
22 28 35 42 48 54 59 67 74 78 76 72 67 59 57 50 43 36 30 25 22 21 22 24 27 30 30 29 29 32 32 34 41 50 68 78 79 94 100 101 102 105 105
Wind_Direction_500mb
239 241 242 241 240 241 239 238 239 241 242 238 234 233 232 233 233 234 236 242 249 257 262 270 272 275 280 287 292 296 297 297 296 300 304 305 307 308 309 309 308 307 309
250 247 247 246 244 244 242 241 238 239 238 238 233 232 233 232 232 234 237 242 248 253 258 263 268 272 280 286 290 293 295 296 298 299 302 304 306 309 309 310 311 311 312
250 250 247 246 246 246 245 244 241 239 236 235 232 232 232 231 231 232 235 240 246 252 256 261 263 269 277 286 291 293 296 297 299 299 301 303 307 311 313 313 313 311 308
255 254 251 248 249 248 247 245 241 239 235 233 232 231 231 231 230 231 234 238 246 251 256 258 259 265 278 287 293 294 296 299 300 298 300 304 310 312 309 309 305 301 298
258 255 254 252 250 248 246 245 241 238 235 233 231 228 229 228 229 230 233 238 244 249 253 254 258 272 280 290 295 295 298 300 301 304 302 304 301 303 300 299 296 300 297
261 257 253 249 248 247 244 242 239 235 232 230 228 227 228 227 227 231 234 236 241 246 252 251 259 269 283 290 288 289 285 292 295 293 289 288 294 296 298 296 295 296 296
268 262 254 249 246 244 242 239 236 232 230 228 227 226 226 227 227 230 234 237 240 245 249 254 261 276 284 284 285 289 291 286 280 286 287 286 293 299 299 297 293 290 287
269 265 259 250 245 242 238 236 232 230 229 228 228 226 225 224 224 228 233 234 237 241 248 256 268 277 279 284 296 298 300 302 300 297 293 295 292 295 296 294 294 289 285
269 265 258 251 245 241 237 234 229 227 225 225 227 227 226 223 223 226 230 232 235 245 253 255 264 270 286 297 294 299 300 299 300 300 293 291 291 292 291 290 286 290 288
286 271 261 252 246 242 236 233 230 228 226 223 224 226 226 223 224 225 227 228 234 242 246 252 260 278 290 293 294 298 292 300 304 305 305 301 302 304 307 291 290 288 286
303 283 269 257 247 244 240 235 232 226 224 224 222 223 222 219 220 224 229 227 237 241 242 246 258 275 284 287 286 287 296 301 300 302 306 307 312 317 319 313 297 287 285
315 300 279 264 251 245 239 237 232 226 224 222 222 221 219 216 215 220 227 230 237 236 242 250 265 270 278 291 295 300 302 303 309 310 314 319 321 321 321 315 297 292 287
298 297 289 272 254 245 239 235 230 226 224 221 219 218 215 212 212 215 214 222 234 235 238 235 242 256 278 294 297 300 307 317 320 322 323 325 324 325 323 322 308 303 299
284 275 270 276 274 256 246 242 238 235 228 225 219 216 213 210 209 208 208 218 228 229 225 227 235 247 271 290 294 304 320 327 329 328 328 329 328 331 328 328 309 310 305
281 269 260 250 246 248 250 249 243 241 241 234 225 220 213 208 208 212 214 218 220 223 219 221 233 254 267 280 298 314 324 329 330 330 330 332 331 333 333 330 307 307 302
286 271 258 253 248 245 242 239 235 236 234 232 231 223 215 215 210 208 209 213 212 215 207 212 231 253 274 294 305 319 329 332 331 332 332 334 332 331 331 322 309 308 302
279 280 266 254 251 244 239 237 236 226 228 221 208 217 213 206 210 207 197 187 188 206 207 209 235 257 285 300 312 324 332 335 334 335 335 336 337 337 326 316 313 310 305
268 272 273 264 257 251 245 237 230 220 199 193 190 193 203 200 185 179 189 194 195 199 202 212 242 266 287 297 312 324 330 335 337 336 335 338 343 333 324 315 316 313 309
272 268 264 260 256 249 240 232 223 205 190 183 172 168 191 181 173 172 200 198 196 200 202 217 247 271 286 298 312 323 329 335 337 336 338 341 344 339 321 319 318 315 312
268 265 260 252 246 240 233 222 202 188 183 175 174 172 168 165 172 188 195 187 194 198 211 227 251 275 287 301 311 320 329 335 337 338 339 343 345 341 324 322 321 317 315
266 261 254 245 237 231 221 202 188 183 177 176 183 187 180 182 189 190 185 188 190 200 214 228 254 270 285 303 313 321 329 333 336 338 341 342 345 335 336 326 322 320 317
260 252 243 235 228 218 207 195 188 185 183 192 189 180 185 187 184 182 184 187 192 204 220 241 262 272 287 304 318 320 325 333 337 338 340 343 345 340 339 330 327 324 322
244 236 225 218 213 204 192 189 187 187 191 192 181 176 185 182 183 184 185 189 198 210 230 252 268 275 286 305 314 315 321 332 334 337 340 344 341 343 342 335 331 328 327
220 211 204 198 193 189 189 187 187 193 192 182 180 181 181 182 183 183 187 194 204 221 244 264 276 284 289 296 303 312 318 328 331 337 342 343 336 345 345 342 340 336 334
202 196 193 190 187 187 188 189 190 188 179 176 179 180 178 178 180 185 192 198 210 230 252 268 281 289 292 296 305 313 319 324 332 343 345 334 339 344 347 346 347 346 343
179 181 182 183 185 187 187 182 174 172 173 173 174 173 174 177 182 188 197 206 221 239 254 272 283 288 290 296 305 312 322 329 339 353 338 336 342 343 348 348 351 352 348
Wind_Speed_850mb
95 94 102 106 105 107 102 96 91 90 89 85 83 84 81 76 70 64 58 53 53 51 47 48 44 41 41 41 45 49 54 59 84 112 106 110 111 111 112 112 113 115 111
89 95 99 104 108 113 112 106 98 96 89 86 86 85 83 80 74 69 64 58 55 52 49 47 43 40 40 43 47 54 58 62 74 105 114 114 113 111 111 114 115 114 114
92 97 104 107 107 112 114 111 106 102 93 91 91 91 89 84 78 73 67 61 57 52 49 46 42 39 41 44 49 56 61 67 72 87 114 114 113 110 113 116 119 118 112
95 101 107 108 107 107 109 111 109 106 98 95 95 92 90 85 80 77 71 63 58 53 49 46 42 38 39 45 51 59 61 66 72 81 98 111 110 105 99 107 116 100 104
100 106 109 106 108 108 109 107 106 104 99 94 93 92 93 89 87 81 72 63 58 55 50 45 42 37 44 47 53 58 59 63 67 76 92 101 108 97 86 100 109 117 111
104 109 109 112 111 112 105 105 104 98 95 94 95 97 97 94 87 80 73 65 59 55 51 46 37 42 42 46 52 48 46 51 62 74 83 90 112 94 98 99 107 111 129
98 101 111 111 111 110 101 102 101 97 94 95 99 98 98 92 85 82 75 65 60 54 50 42 42 40 44 47 47 48 46 48 55 62 82 90 108 102 104 110 108 109 127
83 88 97 105 107 102 99 100 98 96 94 96 102 100 98 95 91 85 77 67 59 55 47 46 41 42 44 43 46 52 55 57 62 65 76 86 93 98 97 105 111 107 120
69 79 86 93 97 97 95 98 96 97 96 100 101 99 99 94 91 83 74 65 56 48 49 43 41 45 37 41 45 49 57 67 70 67 73 77 75 83 92 96 105 101 114
55 68 75 82 86 88 88 93 93 93 96 98 97 97 95 91 86 79 74 63 49 54 51 44 44 33 37 39 37 46 66 68 70 71 77 84 84 82 76 65 73 87 95
50 54 60 64 71 76 79 83 85 90 93 95 94 94 96 90 83 76 71 57 55 57 49 44 30 29 33 35 38 47 54 55 62 70 75 80 80 76 75 68 66 77 93
56 48 47 52 59 66 73 79 82 84 89 90 90 93 93 88 80 73 67 51 60 50 48 34 25 29 28 28 36 44 46 47 55 64 71 77 81 81 80 75 76 83 89
58 52 41 43 52 56 63 72 77 81 88 92 92 96 97 92 82 76 61 59 59 55 47 30 30 24 21 25 32 39 41 43 52 61 70 77 80 82 88 86 81 90 95
66 60 56 57 55 51 57 66 73 83 88 96 97 104 103 94 87 76 64 60 58 55 38 29 25 18 15 23 30 33 36 44 53 61 71 78 83 85 92 84 92 100 101
74 70 70 71 68 69 71 71 75 84 93 102 98 106 112 102 90 67 65 65 56 40 32 29 23 17 20 22 30 33 39 45 53 60 69 78 83 85 96 88 86 100 100
80 79 79 79 76 76 79 83 84 88 91 92 89 102 102 87 75 73 64 57 48 43 35 26 18 20 23 25 29 33 38 45 51 60 67 76 82 85 94 91 87 96 99
88 81 81 80 83 80 81 83 86 62 78 74 62 88 95 81 74 63 52 48 41 40 33 23 21 21 21 27 30 34 41 44 51 61 68 78 82 88 90 85 98 96 99
89 89 88 80 77 79 82 82 80 82 70 69 62 66 78 68 65 60 57 48 50 42 32 22 23 20 21 28 30 36 41 47 55 64 70 78 86 87 85 92 97 98 100
71 78 85 89 85 81 77 73 73 72 76 82 78 69 71 68 64 58 62 52 45 37 27 21 22 18 23 28 32 35 42 48 56 66 71 81 88 90 86 98 102 100 100
66 74 82 85 82 75 71 66 70 80 84 86 85 84 83 76 76 74 56 52 43 33 24 22 18 19 25 30 33 36 43 50 57 66 73 83 91 89 95 101 103 105 102
73 72 73 72 72 70 68 73 83 92 91 88 92 90 96 95 80 63 58 48 39 31 27 21 16 21 24 27 32 38 43 49 54 65 75 83 90 92 102 102 106 103 102
64 63 61 62 62 60 64 75 89 95 100 101 97 86 86 75 68 58 53 44 34 29 23 16 18 24 25 27 33 40 44 50 53 64 74 84 89 102 102 105 106 103 101
44 47 48 50 50 56 68 82 90 96 100 95 86 83 79 76 65 56 46 38 32 25 19 17 21 24 26 27 31 38 43 49 51 59 73 86 92 102 103 105 105 104 104
30 37 44 49 54 62 70 74 81 88 83 84 85 78 71 70 60 50 42 35 27 20 18 20 24 26 26 26 29 33 37 42 45 54 69 86 90 100 104 106 105 104 106
24 32 38 45 53 59 63 67 71 76 81 82 76 67 66 59 51 44 36 29 22 20 19 22 25 28 29 29 30 33 33 35 38 48 70 83 82 97 101 104 103 108 104
22 28 35 42 48 54 59 67 74 78 76 72 67 59 57 50 43 36 30 25 22 21 22 24 27 30 30 29 29 32 32 34 41 50 68 78 79 94 100 101 102 105 105
Wind_Direction_850mb
239 241 242 241 240 241 239 238 239 241 242 238 234 233 232 233 233 234 236 242 249 257 262 270 272 275 280 287 292 296 297 297 296 300 304 305 307 308 309 309 308 307 309
250 247 247 246 244 244 242 241 238 239 238 238 233 232 233 232 232 234 237 242 248 253 258 263 268 272 280 286 290 293 295 296 298 299 302 304 306 309 309 310 311 311 312
250 250 247 246 246 246 245 244 241 239 236 235 232 232 232 231 231 232 235 240 246 252 256 261 263 269 277 286 291 293 296 297 299 299 301 303 307 311 313 313 313 311 308
255 254 251 248 249 248 247 245 241 239 235 233 232 231 231 231 230 231 234 238 246 251 256 258 259 265 278 287 293 294 296 299 300 298 300 304 310 312 309 309 305 301 298
258 255 254 252 250 248 246 245 241 238 235 233 231 228 229 228 229 230 233 238 244 249 253 254 258 272 280 290 295 295 298 300 301 304 302 304 301 303 300 299 296 300 297
261 257 253 249 248 247 244 242 239 235 232 230 228 227 228 227 227 231 234 236 241 246 252 251 259 269 283 290 288 289 285 292 295 293 289 288 294 296 298 296 295 296 296
268 262 254 249 246 244 242 239 236 232 230 228 227 226 226 227 227 230 234 237 240 245 249 254 261 276 284 284 285 289 291 286 280 286 287 286 293 299 299 297 293 290 287
269 265 259 250 245 242 238 236 232 230 229 228 228 226 225 224 224 228 233 234 237 241 248 256 268 277 279 284 296 298 300 302 300 297 293 295 292 295 296 294 294 289 285
269 265 258 251 245 241 237 234 229 227 225 225 227 227 226 223 223 226 230 232 235 245 253 255 264 270 286 297 294 299 300 299 300 300 293 291 291 292 291 290 286 290 288
286 271 261 252 246 242 236 233 230 228 226 223 224 226 226 223 224 225 227 228 234 242 246 252 260 278 290 293 294 298 292 300 304 305 305 301 302 304 307 291 290 288 286
303 283 269 257 247 244 240 235 232 226 224 224 222 223 222 219 220 224 229 227 237 241 242 246 258 275 284 287 286 287 296 301 300 302 306 307 312 317 319 313 297 287 285
315 300 279 264 251 245 239 237 232 226 224 222 222 221 219 216 215 220 227 230 237 236 242 250 265 270 278 291 295 300 302 303 309 310 314 319 321 321 321 315 297 292 287
298 297 289 272 254 245 239 235 230 226 224 221 219 218 215 212 212 215 214 222 234 235 238 235 242 256 278 294 297 300 307 317 320 322 323 325 324 325 323 322 308 303 299
284 275 270 276 274 256 246 242 238 235 228 225 219 216 213 210 209 208 208 218 228 229 225 227 235 247 271 290 294 304 320 327 329 328 328 329 328 331 328 328 309 310 305
281 269 260 250 246 248 250 249 243 241 241 234 225 220 213 208 208 212 214 218 220 223 219 221 233 254 267 280 298 314 324 329 330 330 330 332 331 333 333 330 307 307 302
286 271 258 253 248 245 242 239 235 236 234 232 231 223 215 215 210 208 209 213 212 215 207 212 231 253 274 294 305 319 329 332 331 332 332 334 332 331 331 322 309 308 302
279 280 266 254 251 244 239 237 236 226 228 221 208 217 213 206 210 207 197 187 188 206 207 209 235 257 285 300 312 324 332 335 334 335 335 336 337 337 326 316 313 310 305
268 272 273 264 257 251 245 237 230 220 199 193 190 193 203 200 185 179 189 194 195 199 202 212 242 266 287 297 312 324 330 335 337 336 335 338 343 333 324 315 316 313 309
272 268 264 260 256 249 240 232 223 205 190 183 172 168 191 181 173 172 200 198 196 200 202 217 247 271 286 298 312 323 329 335 337 336 338 341 344 339 321 319 318 315 312
268 265 260 252 246 240 233 222 202 188 183 175 174 172 168 165 172 188 195 187 194 198 211 227 251 275 287 301 311 320 329 335 337 338 339 343 345 341 324 322 321 317 315
266 261 254 245 237 231 221 202 188 183 177 176 183 187 180 182 189 190 185 188 190 200 214 228 254 270 285 303 313 321 329 333 336 338 341 342 345 335 336 326 322 320 317
260 252 243 235 228 218 207 195 188 185 183 192 189 180 185 187 184 182 184 187 192 204 220 241 262 272 287 304 318 320 325 333 337 338 340 343 345 340 339 330 327 324 322
244 236 225 218 213 204 192 189 187 187 191 192 181 176 185 182 183 184 185 189 198 210 230 252 268 275 286 305 314 315 321 332 334 337 340 344 341 343 342 335 331 328 327
220 211 204 198 193 189 189 187 187 193 192 182 180 181 181 182 183 183 187 194 204 221 244 264 276 284 289 296 303 312 318 328 331 337 342 343 336 345 345 342 340 336 334
202 196 193 190 187 187 188 189 190 188 179 176 179 180 178 178 180 185 192 198 210 230 252 268 281 289 292 296 305 313 319 324 332 343 345 334 339 344 347 346 347 346 343
179 181 182 183 185 187 187 182 174 172 173 173 174 173 174 177 182 188 197 206 221 239 254 272 283 288 290 296 305 312 322 329 339 353 338 336 342 343 348 348 351 352 348